COSMOS 2251 DEB

Satellite information

Favourite Embed

Satellite Type and Status

DEBRISIN ORBIT

Key statistics

Satellite COSMOS 2251 DEB at a glance.

Uptime

11869

Days in orbit

Revolutions

≈ 14.6

Per day

Orbit

LEO

Low Earth Orbit

Inclination

74.0

Latest

Satellite identification and parameters

Extended collection of information and parameters for COSMOS 2251 DEB.

Object identification

Identified? True

Debris? True

Object name: COSMOS 2251 DEB

International designator: 1993-036YA

Object number (NORAD): 34680

Object ID (CCSDS): 34680

Country: COMMONWEALTH OF INDEPENDENT STATES (CIS)

Current information (Y/N): Y

RCS size: SMALL

Orbital parameters

Period: 98.587 minutes

Inclination: 74.0428 deg

SMA: 7069.242 km

Apoapsis: 695.816 km

Periapsis: 686.399 km

RAAN: 128.3944 deg

Eccentricy: 0.00066608

Argument of periapsis: 225.9095 deg

Mean anomaly: 205.9692 deg

Mean motion: 14.60640869 rev/day

Mean motion (dot): 0.00009295 rev/day2

B* drag term: 0.0019126401 1/REarth

Two-line elements (TLE)

Creation date: Dec. 14, 2025, 3:07 a.m.

Reference frame: TEME

Reference center: EARTH

Epoch: Dec. 13, 2025, 12:08 p.m. UTC

TLE line 0: 0 COSMOS 2251 DEB

TLE line 1: 1 34680U 93036YA 25347.50562645 .00009295 00000-0 19126-2 0 9992

TLE line 2: 2 34680 74.0428 128.3944 0006661 225.9095 205.9692 14.60640869883398

Live tracking on map

Real-time ground track for satellite COSMOS 2251 DEB.

In-orbit conjunctions

A list of the most updated potential collisions computed for object COSMOS 2251 DEB.

Target Orbit TCA Probability of collision Miss distance Type
ATLAS 5 CENTAUR R/B SSO 2025-04-01 16:27:58 0.001272788 19.0 (m) ROCKET BODY
CZ-4 DEB SSO 2024-07-04 04:13:05 0.0001120955 170.0 (m) DEBRIS

Associated space launch

Military communications satellite. Destroyed in a collision with Iridium 33.

COSMOS 2251 DEB was lifted into orbit during the mission ‘Kosmos-3M | Strela-2M 51’, on board a Kosmos-3M space rocket.

The launch took place on June 16, 1993, 4:17 a.m. from 132/1 (132L).

For more information about the launch, click the button.

Launch to space Kosmos-3M | Strela-2M 51
Kosmos-3M | Strela-2M 51

Agency: N/A

Status: Launch Successful

Launch date: June 16, 1993, 4:17 a.m. UTC

Rocket: Kosmos-3M

Launch pad: 132/1 (132L)

Location: Plesetsk Cosmodrome, Russian Federation

...

Latest news about this satellite

There are no fresh news available about this satellite. Check back as we update our databases every day.


Newsletter sign-up

Weekly statistics, charts and insights to help you stay on top of the space industry.